Location: Hurecourt
(47.9030°N, 6.0653°E)
Time: 08:00:46
(UTC+00:00)

Cosmos 1536 - Pass Details

Date: 14 July 2020
Orbit: 539 x 559 km, 82.5° (Epoch: 14 August)

Event Time Altitude Azimuth Distance (km) Brightness Sun altitude
Exits shadow 02:02:34 19° 186° (S) 1,343 4.3 -13.6°
Maximum altitude 02:05:23 87° 97° (E) 565 2.8 -13.4°
Drops below altitude 10° 02:09:28 10° 10° (N) 1,849 6.6 -13.0°
Sets 02:11:38 0° 10° (N) 2,746 7.7 -12.8°
